FDX530 KMIA-KATL

Flight info

Callsign FDX530
Flight time N/A
Altitude 36000
Route FLMGO2 STYMY Q77 MJAMS/N0482F410 Q77 SHRKS/N0482F400 LAIRI LARZZ JJEDI4
Aircraft B77L/H-SDE1E2E3FGHIJ2J3J4J5M1RWXY/LB1D1

Departure

Time N/A
Airport Miami International Airport (KMIA)

Arrival

Time 2026-05-04 16:31
Airport Hartsfield Jackson Atlanta International Airport (KATL)
Time Latitude Longitude Altitude Speed Heading
2026-05-04 15:39 29.19325 -81.63340 36139 ft 465 kts 347°
2026-05-04 15:39 29.22555 -81.63635 36138 ft 465 kts 347°
2026-05-04 15:40 29.32235 -81.64530 36137 ft 464 kts 347°
2026-05-04 15:40 29.38626 -81.65121 36134 ft 464 kts 347°
2026-05-04 15:41 29.45060 -81.65716 36150 ft 463 kts 347°
2026-05-04 15:41 29.51481 -81.66310 36146 ft 463 kts 347°
2026-05-04 15:42 29.57907 -81.66905 36155 ft 462 kts 347°
2026-05-04 15:42 29.64315 -81.67499 36150 ft 462 kts 347°
2026-05-04 15:43 29.70719 -81.68094 36151 ft 461 kts 347°
2026-05-04 15:43 29.77118 -81.68683 36154 ft 460 kts 347°
2026-05-04 15:44 29.83458 -81.69266 36156 ft 460 kts 347°
2026-05-04 15:44 29.89834 -81.69854 36154 ft 459 kts 346°
2026-05-04 15:45 29.96205 -81.70443 36153 ft 459 kts 346°
2026-05-04 15:45 30.02567 -81.71032 36147 ft 458 kts 346°
2026-05-04 15:46 30.08920 -81.71621 36161 ft 458 kts 346°
2026-05-04 15:46 30.15269 -81.72211 36163 ft 457 kts 346°
2026-05-04 15:47 30.21618 -81.72801 36167 ft 457 kts 346°
2026-05-04 15:47 30.27914 -81.73386 36172 ft 457 kts 346°
2026-05-04 15:48 30.34252 -81.73977 36171 ft 456 kts 346°
2026-05-04 15:48 30.43745 -81.74863 36151 ft 456 kts 346°
2026-05-04 15:49 30.50069 -81.75454 36155 ft 455 kts 346°
2026-05-04 15:49 30.56387 -81.76046 36149 ft 455 kts 346°
2026-05-04 15:50 30.62489 -81.77387 36153 ft 440 kts 335°
2026-05-04 15:50 30.68155 -81.79885 36158 ft 430 kts 326°
2026-05-04 15:51 30.73513 -81.82993 36163 ft 430 kts 325°
2026-05-04 15:51 30.78826 -81.86125 36156 ft 431 kts 326°
2026-05-04 15:52 30.84187 -81.89261 36150 ft 431 kts 326°
2026-05-04 15:52 30.89568 -81.92391 36152 ft 432 kts 326°
2026-05-04 15:53 30.94951 -81.95520 36154 ft 432 kts 326°
2026-05-04 15:53 31.00301 -81.98632 36160 ft 432 kts 326°
2026-05-04 15:54 31.05683 -82.01768 36145 ft 431 kts 326°
2026-05-04 15:54 31.11050 -82.04901 36136 ft 431 kts 326°
2026-05-04 15:55 31.16412 -82.08034 36151 ft 431 kts 326°
2026-05-04 15:55 31.21776 -82.11173 36155 ft 431 kts 326°
2026-05-04 15:56 31.27142 -82.14316 36153 ft 432 kts 326°
2026-05-04 15:56 31.32514 -82.17468 36154 ft 432 kts 326°
2026-05-04 15:57 31.37856 -82.20605 36153 ft 432 kts 326°
2026-05-04 15:57 31.43232 -82.23766 36151 ft 433 kts 326°
2026-05-04 15:58 31.48618 -82.26938 36148 ft 433 kts 326°
2026-05-04 15:58 31.54003 -82.30113 36156 ft 433 kts 326°
2026-05-04 15:59 31.59389 -82.33293 36156 ft 433 kts 326°
2026-05-04 15:59 31.64781 -82.36480 36154 ft 433 kts 326°
2026-05-04 16:00 31.70165 -82.39668 36142 ft 433 kts 326°
2026-05-04 16:00 31.75516 -82.42839 36141 ft 434 kts 326°
2026-05-04 16:01 31.80906 -82.46039 36153 ft 434 kts 326°
2026-05-04 16:01 31.86309 -82.49250 36160 ft 435 kts 326°
2026-05-04 16:02 31.91717 -82.52468 36161 ft 436 kts 326°
2026-05-04 16:03 31.99293 -82.58161 36153 ft 425 kts 314°
2026-05-04 16:03 32.03766 -82.62729 36150 ft 425 kts 313°
2026-05-04 16:04 32.08204 -82.67288 36150 ft 426 kts 313°
2026-05-04 16:04 32.14925 -82.74161 36146 ft 426 kts 313°
2026-05-04 16:05 32.19415 -82.78746 36155 ft 426 kts 313°
2026-05-04 16:06 32.26142 -82.85628 36152 ft 427 kts 313°
2026-05-04 16:07 32.35114 -82.94831 36166 ft 423 kts 313°
2026-05-04 16:07 32.41629 -83.01532 34501 ft 420 kts 313°
2026-05-04 16:08 32.43839 -83.03815 33448 ft 423 kts 313°
2026-05-04 16:08 32.50577 -83.10771 30394 ft 430 kts 314°
2026-05-04 16:09 32.55125 -83.15474 28577 ft 438 kts 314°
2026-05-04 16:09 32.59658 -83.20161 26912 ft 426 kts 315°
2026-05-04 16:10 32.64066 -83.24728 25394 ft 415 kts 315°
2026-05-04 16:11 32.70485 -83.31401 23326 ft 406 kts 315°
2026-05-04 16:11 32.72607 -83.33611 22699 ft 405 kts 316°
2026-05-04 16:12 32.78903 -83.40173 20977 ft 398 kts 316°
2026-05-04 16:12 32.85085 -83.46626 19390 ft 390 kts 317°
2026-05-04 16:13 32.89135 -83.50863 18349 ft 385 kts 317°
2026-05-04 16:13 32.93130 -83.55044 17194 ft 380 kts 317°
2026-05-04 16:14 32.97086 -83.59189 16081 ft 377 kts 317°
2026-05-04 16:14 33.01016 -83.63303 15015 ft 370 kts 317°
2026-05-04 16:15 33.05539 -83.68042 13521 ft 292 kts 317°
2026-05-04 16:16 33.08537 -83.71198 12406 ft 291 kts 317°
2026-05-04 16:16 33.13067 -83.75963 11236 ft 282 kts 317°
2026-05-04 16:17 33.15957 -83.79010 10761 ft 275 kts 318°
2026-05-04 16:18 33.20210 -83.83603 10124 ft 277 kts 315°
2026-05-04 16:18 33.21573 -83.85235 9888 ft 278 kts 314°
2026-05-04 16:19 33.25686 -83.90177 9218 ft 280 kts 314°
2026-05-04 16:19 33.28442 -83.93467 8765 ft 279 kts 314°
2026-05-04 16:20 33.32485 -83.98300 8080 ft 270 kts 314°
2026-05-04 16:20 33.35115 -84.01449 7655 ft 269 kts 315°
2026-05-04 16:21 33.40292 -84.02982 6995 ft 267 kts 358°
2026-05-04 16:22 33.44057 -84.03045 6587 ft 274 kts 358°
2026-05-04 16:22 33.49627 -84.02818 5854 ft 259 kts
2026-05-04 16:23 33.54985 -84.02192 5231 ft 260 kts
2026-05-04 16:24 33.61998 -84.01547 5007 ft 253 kts 350°
2026-05-04 16:25 33.64689 -84.03963 5001 ft 252 kts 291°
2026-05-04 16:26 33.64948 -84.12302 4858 ft 253 kts 270°
2026-05-04 16:26 33.64939 -84.18530 4123 ft 231 kts 270°
2026-05-04 16:27 33.64946 -84.22238 3739 ft 219 kts 271°
2026-05-04 16:28 33.64948 -84.27249 3096 ft 177 kts 270°
2026-05-04 16:28 33.64955 -84.31545 2586 ft 166 kts 269°
2026-05-04 16:29 33.64951 -84.36643 1755 ft 136 kts 269°
2026-05-04 16:30 33.64957 -84.40109 1172 ft 138 kts 270°
2026-05-04 16:31 33.64954 -84.42225 1012 ft 90 kts 270°
2026-05-04 16:31 33.64944 -84.43712 1011 ft 7 kts 263°
2026-05-04 16:32 33.64846 -84.43524 1011 ft 19 kts 89°
2026-05-04 16:33 33.64789 -84.43201 1011 ft 21 kts 93°
2026-05-04 16:33 33.64792 -84.42814 1011 ft 25 kts 91°
2026-05-04 16:34 33.64786 -84.42375 1010 ft 26 kts 92°
2026-05-04 16:34 33.64826 -84.42244 1011 ft 15 kts 27°
2026-05-04 16:35 33.65066 -84.42096 1011 ft 17 kts 91°
2026-05-04 16:35 33.65145 -84.41886 1011 ft 2 kts 359°
2026-05-04 16:36 33.65171 -84.41887 1011 ft 5 kts 358°
2026-05-04 16:36 33.65395 -84.41786 1011 ft 18 kts 35°
2026-05-04 16:37 33.65411 -84.41682 1011 ft 0 kts 120°
2026-05-04 16:37 33.65416 -84.41637 1011 ft 5 kts 58°
2026-05-04 16:37 33.65466 -84.41607 1011 ft 1 kts 29°
2026-05-04 16:38 33.65469 -84.41605 1011 ft 0 kts 30°